User: anonymous
Location: Unspecified
(0.0000°N, 0.0000°E)
Time: 19:37:40
(UTC+00:00)
Language:

Optus B3 - Orbit

View from above orbital plane
View from above orbital plane
View from above satellite
View from above satellite

Ground track
Ground track

The orbit data is extracted from the following two-line orbital elements,

1 23227U 94055A   14233.76746563 -.00000099  00000-0  00000+0 0  5349
2 23227 005.6483 058.6783 0005075 097.3756 254.3632 01.00273673 73155
Epoch (UTC): 21 August 2014 18:25:09
Eccentricity: 0.0005075
inclination: 5.6483°
perigee height: 35764 km
apogee height: 35807 km
right ascension of ascending node: 58.6783°
argument of perigee: 97.3756°
revolutions per day: 1.00273673
mean anomaly at epoch: 254.3632°
orbit number at epoch: 7315

The dashed part of the orbit path shows where the satellite is in the earth's shadow,  

DLR